Location: Clyde
(45.1830°S, 169.3170°E)
Time: 22:25:02
(UTC+12:00)

Cosmos 1633 Rocket - Pass Details

Date: 24 January 2019
Orbit: 608 x 623 km, 82.5° (Epoch: 19 April)

Event Time Altitude Azimuth Distance (km) Brightness Sun altitude
Rises 22:07:37 0° 193° (SSW) 2,913 7.4 -7.5°
Reaches altitude 10° 22:09:53 10° 197° (SSW) 2,000 6.6 -7.8°
Maximum altitude 22:14:13 57° 274° (W) 737 3.8 -8.4°
Drops below altitude 10° 22:18:31 10° 352° (N) 1,978 5.3 -9.0°
Sets 22:20:45 0° 356° (N) 2,877 6.1 -9.3°
